Terminal Aerodrome Forecast
Issued by NWS Portland, OR

Home | Current Version | Previous Version | Text Only | Print | Product List | Glossary On
Versions: 1 2 3 4 5 6 7 8 9 10 11 12 13
000
FTUS46 KPQR 251734
TAFHIO
TAF
KHIO 251734Z 2518/2618 VRB03KT P6SM SKC
     FM260000 28006KT P6SM SCT200
     FM261200 21004KT P6SM OVC015=

USA.gov is the U.S. government's official web portal to all federal, state and local government web resources and services.